Location: Chugcreek
(42.0500°N, 104.9196°W)
Time: 12:00:35
(UTC+00:00)

N. Korean satellite - Visible Passes

Search period start: 20 January 2022 00:00
Search period end: 30 January 2022 00:00
Orbit: 446 x 491 km, 97.3° (Epoch: 19 January)

Date Brightness Start Highest point End Pass type
(mag) Time Alt. Az. Time Alt. Az. Time Alt. Az.
20 Jan 9.9 00:31:53 10° WSW 00:33:24 12° W 00:34:55 10° WNW visible
20 Jan 9.1 11:53:42 10° NNE 12:02:06 - S 11:54:29 15° NNE visible
20 Jan 8.7 13:28:15 10° NW 13:28:33 11° NW 13:28:33 11° NW visible
21 Jan 9.8 11:25:17 10° NE 11:32:43 - SSE 11:25:23 11° NE visible
21 Jan 8.2 12:57:58 10° NNW 12:59:27 19° NNW 12:59:27 19° NNW visible
22 Jan 7.8 12:28:26 10° N 12:37:20 - SSW 12:30:21 29° N visible
23 Jan 10.2 00:38:23 10° WSW 00:39:08 11° W 00:39:54 10° WNW visible
23 Jan 8.3 11:59:19 10° NNE 12:07:54 - S 12:01:15 28° NE visible
23 Jan 8.6 13:34:28 10° NW 13:35:18 11° WNW 13:35:18 11° WNW visible
24 Jan 9.3 11:30:41 10° NE 11:38:25 - SSE 11:32:09 18° ENE visible
24 Jan 7.8 13:03:43 10° NNW 13:06:12 23° WNW 13:06:12 23° WNW visible
25 Jan 6.8 12:34:02 10° N 12:42:57 - SSW 12:37:05 48° NW visible
26 Jan 7.1 12:04:47 10° NNE 12:13:26 - S 12:07:59 56° ENE visible
27 Jan 8.8 11:35:59 10° NE 11:43:51 - SSE 11:38:53 25° E visible
27 Jan 7.9 13:09:19 10° NNW 13:12:02 20° WNW 13:12:56 18° W visible
28 Jan 9.9 11:08:20 10° ENE 11:09:36 11° E 11:09:48 11° E visible
28 Jan 6.8 12:39:29 10° N 12:42:58 44° WNW 12:43:51 36° WSW visible
29 Jan 6.7 12:10:05 10° NNE 12:13:44 73° ESE 12:14:48 43° S visible
